Tracking 19575 objects as of 21-Feb-2019
HD Live streaming from Space Station
objects crossing your sky now

PROBA 1

Track PROBA 1 now!
10-day predictions
PROBA 1 is classified as:


NORAD ID: 26958
Int'l Code: 2001-049B
Perigee: 536.6 km
Apogee: 640.4 km
Inclination: 97.7 °
Period: 96.3 minutes
Semi major axis: 6959 km
RCS: Unknown
Launch date: October 22, 2001
Source: European Space Agency (ESA)
Launch site: SRIHARIKOTA (SRI)

First a technology demonstration, then extended for one year for remote sensing; looks like a washing machine.
aabbcc
Your satellite tracking list
Your tracking list is empty




NASA's NSSDC Master Catalog

Two Line Element Set (TLE):
1 26958U 01049B   19051.74794935 -.00000264  00000-0 -17396-4 0  9992
2 26958  97.6511  10.7173 0074581  74.2777 286.6681 14.95335620943202
Source of the keplerian elements: AFSPC